Location: La Plant
(45.1447°N, 100.6515°W)
Time: 12:31:23
(UTC+00:00)

X-37B - Visible Passes

Search period start: 12 June 2021 00:00
Search period end: 22 June 2021 00:00
Orbit: 386 x 389 km, 45.0° (Epoch: 10 June)

Date Brightness Start Highest point End Pass type
(mag) Time Alt. Az. Time Alt. Az. Time Alt. Az.
12 Jun 1.2 09:29:22 21° SW 09:31:04 41° SSE 09:34:06 10° E visible
13 Jun 1.9 08:33:18 26° SE 08:33:18 26° SE 08:35:36 10° E visible
13 Jun 0.5 10:06:04 10° WSW 10:09:14 78° S 10:12:25 10° E visible
14 Jun 0.6 09:09:28 28° SW 09:10:54 61° SSE 09:14:02 10° E visible
15 Jun 1.6 08:13:22 34° ESE 08:13:22 34° ESE 08:15:38 10° E visible
15 Jun 0.5 09:45:57 10° W 09:49:08 89° SSE 09:52:19 10° E visible
16 Jun 0.4 08:49:32 34° WSW 08:50:46 79° S 08:53:57 10° E visible
17 Jun 1.6 07:53:27 37° E 07:53:27 37° E 07:55:35 10° E visible
17 Jun 0.5 09:25:51 10° W 09:29:02 89° S 09:32:13 10° E visible
18 Jun 0.5 08:29:40 41° W 08:30:40 89° S 08:33:51 10° E visible
18 Jun 0.6 10:04:08 10° W 10:07:17 62° SSW 10:10:25 10° ESE visible
19 Jun 2.0 07:33:43 30° E 07:33:43 30° E 07:35:29 10° E visible
19 Jun 0.4 09:06:00 12° W 09:08:56 79° SSW 09:12:07 10° ESE visible
20 Jun 0.4 08:10:13 68° W 08:10:35 89° SSE 08:13:46 10° E visible
20 Jun 0.9 09:44:04 10° W 09:47:07 43° SSW 09:50:08 10° SE visible
21 Jun 3.1 07:14:49 14° E 07:14:49 14° E 07:15:23 10° E visible
21 Jun 0.5 08:47:09 24° W 08:48:48 61° SSW 08:51:57 10° ESE visible
